Burlington, VT

10:45 PM EDT on May 27, 2017 (GMT -0400)
Burlington International

Weather History for KBTV - March, 2012

Change the Weather History Date:

Wednesday, March 7, 2012

  Actual Average Record
Temperature  
Mean Temperature 45 °F 27 °F  
Max Temperature 56 °F 36 °F 63 °F (1974)
Min Temperature 34 °F 18 °F -18 °F (2007)
Degree Days  
Heating Degree Days 20 38  
Month to date heating degree days 242 271  
Since 1 July heating degree days 4803 5681  
Cooling Degree Days 0 0  
Month to date cooling degree days 0 0  
Year to date cooling degree days 0 0  
Moisture  
Dew Point 21 °F    
Average Humidity 37    
Maximum Humidity 44    
Minimum Humidity 30    
Precipitation  
Precipitation 0.00 in 0.07 in 1.34 in (2011)
Month to date precipitation 0.24 0.46  
Year to date precipitation 3.09 4.28  
Snow  
Snow 0.00 in 0.70 in 17.10 in (2011)
Month to date snowfall 3.7 4.4  
Since 1 July snowfall 35.5 65.2  
Snow Depth 0.00 in    
Sea Level Pressure  
Sea Level Pressure 30.22 in    
Wind  
Wind Speed 17 mph (South)    
Max Wind Speed 26 mph    
Max Gust Speed 39 mph    
Visibility 10 miles    
Events      
T = Trace of Precipitation, MM = Missing Value Source: NWS Daily Summary

Daily Weather History Graph

Daily Weather History Graph

Search for Another Location

Airport or City:

Trip Planner

Search our weather history database for the weather conditions in past years. The results will help you decide how hot, cold, wet, or windy it might be!

Date:

Astronomy

Mar. 07, 2012 Rise Set
Actual Time 6:18 AM EST 5:49 PM EST
Civil Twilight 5:49 AM EST 6:18 PM EST
Nautical Twilight 5:15 AM EST 6:51 PM EST
Astronomical Twilight 4:42 AM EST 7:25 PM EST
Moon 5:23 PM EST (3/7) 5:27 AM EST (3/7)
Length of Visible Light 12h 28m
Length of Day
11h 30m
Waxing Gibbous, 99% of the Moon is Illuminated
Mar 7
Waxing Gibbous
Mar 8
Full
Mar 14
Last Quarter
Mar 22
New
Mar 30
First Quarter

Hourly Weather History & Observations

Time (EST) Temp. Windchill Dew Point Humidity Pressure Visibility Wind Dir Wind Speed Gust Speed Precip Events Conditions
12:54 AM 35.1 °F 26.9 °F 10.9 °F 37% 30.40 in 10.0 mi South 11.5 mph 23.0 mph N/A   Overcast
1:54 AM 35.1 °F 24.8 °F 10.9 °F 37% 30.39 in 10.0 mi South 17.3 mph 26.5 mph N/A   Clear
2:54 AM 35.1 °F 24.5 °F 12.0 °F 39% 30.37 in 10.0 mi South 18.4 mph 26.5 mph N/A   Clear
3:54 AM 36.0 °F 26.3 °F 12.9 °F 39% 30.35 in 10.0 mi South 16.1 mph 25.3 mph N/A   Clear
4:54 AM 36.0 °F 27.1 °F 15.1 °F 43% 30.35 in 10.0 mi South 13.8 mph 23.0 mph N/A   Mostly Cloudy
5:54 AM 37.0 °F 27.0 °F 16.0 °F 42% 30.33 in 10.0 mi South 18.4 mph 28.8 mph N/A   Overcast
6:54 AM 37.0 °F 27.0 °F 17.1 °F 44% 30.31 in 10.0 mi South 18.4 mph 29.9 mph N/A   Mostly Cloudy
7:54 AM 37.9 °F 27.9 °F 18.0 °F 45% 30.30 in 10.0 mi South 19.6 mph 31.1 mph N/A   Mostly Cloudy
8:54 AM 42.1 °F 32.8 °F 19.9 °F 41% 30.29 in 10.0 mi South 21.9 mph 34.5 mph N/A   Partly Cloudy
9:54 AM 44.1 °F 35.2 °F 21.0 °F 40% 30.27 in 10.0 mi South 23.0 mph 32.2 mph N/A   Clear
10:54 AM 46.9 °F - 21.9 °F 37% 30.25 in 10.0 mi South 20.7 mph 27.6 mph N/A   Clear
11:54 AM 50.0 °F - 23.0 °F 35% 30.22 in 10.0 mi South 20.7 mph 31.1 mph N/A   Clear
12:54 PM 51.1 °F - 24.1 °F 35% 30.18 in 10.0 mi South 19.6 mph 29.9 mph N/A   Clear
1:54 PM 54.0 °F - 25.0 °F 33% 30.16 in 10.0 mi South 18.4 mph 29.9 mph N/A   Clear
2:54 PM 55.0 °F - 25.0 °F 31% 30.14 in 10.0 mi South 16.1 mph 25.3 mph N/A   Scattered Clouds
3:54 PM 55.0 °F - 25.0 °F 31% 30.13 in 10.0 mi South 13.8 mph 21.9 mph N/A   Partly Cloudy
4:54 PM 55.0 °F - 25.0 °F 31% 30.12 in 10.0 mi South 10.4 mph - N/A   Partly Cloudy
5:54 PM 53.1 °F - 26.1 °F 35% 30.12 in 10.0 mi South 15.0 mph 23.0 mph N/A   Scattered Clouds
6:54 PM 53.1 °F - 27.0 °F 37% 30.12 in 10.0 mi South 17.3 mph 24.2 mph N/A   Partly Cloudy
7:54 PM 54.0 °F - 28.0 °F 37% 30.12 in 10.0 mi South 16.1 mph 23.0 mph N/A   Partly Cloudy
8:54 PM 53.1 °F - 28.0 °F 38% 30.10 in 10.0 mi South 19.6 mph 26.5 mph N/A   Scattered Clouds
9:54 PM 54.0 °F - 28.0 °F 37% 30.08 in 10.0 mi South 16.1 mph 29.9 mph N/A   Clear
10:54 PM 54.0 °F - 27.0 °F 35% 30.08 in 10.0 mi South 18.4 mph 32.2 mph N/A   Clear
11:54 PM 53.6 °F - 26.6 °F 35% 30.07 in 10.0 mi South 13.8 mph 25.3 mph N/A   Clear